2018-104E (43853 NORAD) Tracking and Keplerian Element Data

This shows tracking and keplerian element data for the satellite.

Feedback or suggestion? Click here.




ElementValue
Catalog43853
Name2018-104E
Epoch Orbit21942
Epoch Day324.9237847
Epoch Year2022
RAAN297.1808
Inclination85.0016
Eccentricity0.000966
Argument of Perigee98.0451
Mean Anonmoly262.192
Mean Motion15.81046939
Decay Rate0.00420242
L11 43853U 18104E 22324.92378470 .00420242 00000+0 20667-2 0 9996
L22 43853 85.0016 297.1808 0009660 98.0451 262.1920 15.81046939219424



Live tracking and technical data element details for 2018-104E (NORAD 43853). 2018-104E can be tracked NOW for your location showing map with azimuth and elevation plus other details from your city location.







IsCatalogInMostPopularTable: catalog: 43853, numindb: 358
Update: records affected: 1



GetName: 43853 2018-104E

Hit Count: updated at: Fri, 16 May 2025 11:32:06 GMT